Regional Weather Roundup
Issued by NWS

Home | Current Version | Previous Version | Graphics & Text | Print | Product List | Glossary On
Versions: 1 2 3 4 5 6 7 8 9 10 11 12 13 14 15 16 17 18 19 20 21 22 23 24 25 26 27 28 29 30 31 32 33 34 35 36 37 38 39 40 41 42 43 44 45 46 47 48 49 50
000
ASUS45 KSLC 201210
RWRUT

UTAH REGIONAL WEATHER ROUNDUP
NATIONAL WEATHER SERVICE SALT LAKE CITY UT
600 AM MDT WED AUG 20 2014

UTZ001>011-023>025-201300-

NORTHERN UTAH

CITY           SKY/WX    TMP DP  RH WIND       PRES   REMARKS
HILL AFB       CLOUDY    63  55  77 S8        29.97R
LOGAN          PTCLDY    57  51  80 CALM      29.93S
OGDEN          CLOUDY    64  55  72 S10       29.95R
PROVO AIRPORT  CLOUDY    61  55  82 N9        30.02R
SALT LAKE CITY CLOUDY    62  58  86 S9        29.95S
VERNAL         CLOUDY    60  58  92 E3        30.00S
WENDOVER       MOCLDY    64  45  48 E7        29.93R
HEBER CITY     DRIZZLE   55  54  94 CALM      30.05R
WEST JORDAN    CLOUDY    63  63 100 S9        29.98S

$$

UTZ012>022-026-027-201300-

SOUTHERN UTAH

CITY           SKY/WX    TMP DP  RH WIND       PRES   REMARKS
BRYCE CANYON   CLEAR     44  42  93 CALM      30.17S
CEDAR CITY     CLEAR     58  49  72 SE8       30.05S
MILFORD        CLOUDY    58  54  86 S7        30.01S
MOAB/CYNLANDS  CLEAR     61  60  97 CALM      29.97R
PRICE          MOCLDY    59  56  89 E5        30.04S
ST GEORGE      CLOUDY    66  59  77 NE7       29.95R
KANAB            N/A    N/A N/A N/A CALM      30.09S

$$

REGIONAL REPORTS     COLORADO/ARIZONA

CITY           SKY/WX    TMP DP  RH WIND       PRES   REMARKS
CRAIG, CO      CLOUDY    56  54  93 CALM      30.05S
GRAND JUNCTION CLOUDY    61  60  97 S3        30.01R
RIFLE          MOCLDY    60  58  92 CALM      30.04R
MONTROSE       CLOUDY    62  58  86 CALM      30.07S
CORTEZ         CLEAR     55  54  96 CALM      30.11R
PAGE, AZ       CLEAR     65  60  84 SE7       30.01S
GRAND CANYON     N/A    N/A N/A N/A MISG        N/A
KINGMAN        CLEAR     60  56  86 SE3       29.97R
FLAGSTAFF      CLOUDY    50  48  93 W6        30.22S

$$

REGIONAL REPORTS    NEVADA/IDAHO/WYOMING

CITY           SKY/WX    TMP DP  RH WIND       PRES   REMARKS
LAS VEGAS, NV  PTCLDY    77  55  46 CALM      29.83S
ELY            CLOUDY    54  50  86 S8        30.08S
ELKO           PTCLDY    58  45  62 NE6       29.97R
POCATELLO, ID  CLEAR     52  52 100 NE5       29.93R
BURLEY         MOCLDY    55  51  86 CALM      29.88R
EVANSTON, WY   CLOUDY    52  51  97 SW8       30.09R
ROCK SPRINGS   MOCLDY    52  48  86 SW7       30.04S

$$



USA.gov is the U.S. government's official web portal to all federal, state and local government web resources and services.